Temp
-12 -12 -12 -12 -12 -11 -11 -11 -11 -11 -11 -11 -11 -11 -11 -11 -11 -10 -10 -10 -10 -10 -10 -10 -10 -10 -10 -10 -10 -10 -10 -10 -10 -10 -10 -10 -10 -10 -10 -10 -10 -10 -10 -10 -10
-12 -12 -12 -12 -12 -12 -12 -12 -11 -11 -11 -11 -11 -11 -11 -10 -10 -10 -11 -10 -10 -10 -10 -10 -10 -10 -10 -10 -10 -10 -10 -10 -10 -11 -10 -10 -10 -10 -10 -10 -10 -10 -10 -10 -10
-13 -12 -12 -12 -12 -12 -12 -12 -11 -11 -11 -11 -11 -11 -11 -10 -10 -11 -11 -10 -10 -10 -10 -10 -10 -10 -10 -10 -10 -10 -10 -11 -10 -11 -11 -10 -10 -10 -10 -10 -10 -10 -10 -10 -10
-13 -13 -12 -12 -12 -12 -12 -12 -12 -12 -11 -11 -11 -11 -11 -11 -11 -11 -11 -11 -11 -11 -11 -10 -10 -10 -10 -11 -10 -10 -10 -11 -11 -11 -11 -10 -10 -10 -10 -10 -10 -10 -10 -10 -10
-13 -13 -12 -12 -12 -12 -12 -12 -12 -12 -11 -11 -11 -11 -11 -11 -11 -11 -11 -11 -11 -11 -11 -10 -11 -11 -11 -11 -11 -10 -10 -11 -11 -11 -11 -11 -10 -10 -10 -10 -10 -10 -10 -10 -10
-14 -14 -13 -13 -12 -12 -12 -12 -12 -12 -12 -11 -11 -11 -11 -11 -11 -11 -11 -11 -11 -11 -11 -11 -11 -11 -11 -11 -11 -11 -11 -11 -11 -11 -11 -11 -10 -11 -10 -10 -10 -10 -10 -10 -10
-14 -14 -13 -13 -13 -13 -13 -12 -12 -12 -12 -12 -12 -12 -11 -11 -11 -11 -11 -11 -11 -11 -11 -11 -11 -11 -11 -11 -11 -11 -11 -11 -11 -11 -11 -11 -10 -11 -10 -10 -10 -10 -10 -10 -10
-15 -14 -14 -14 -13 -13 -13 -13 -13 -12 -12 -12 -12 -12 -12 -11 -11 -11 -11 -11 -11 -11 -11 -11 -11 -11 -11 -11 -11 -11 -11 -11 -11 -11 -11 -11 -11 -11 -11 -10 -10 -10 -10 -10 -10
-15 -15 -14 -15 -15 -14 -14 -13 -13 -13 -13 -12 -12 -12 -12 -12 -12 -12 -11 -11 -11 -11 -11 -11 -11 -11 -11 -11 -11 -11 -11 -11 -11 -11 -11 -11 -11 -11 -11 -10 -10 -10 -10 -10 -10
-15 -15 -15 -15 -15 -15 -15 -14 -14 -14 -13 -13 -13 -12 -12 -12 -12 -12 -12 -12 -11 -11 -11 -11 -11 -11 -11 -11 -11 -11 -11 -11 -11 -11 -11 -11 -11 -11 -11 -10 -10 -10 -10 -10 -10
-16 -16 -16 -15 -16 -16 -15 -15 -15 -14 -14 -13 -13 -13 -12 -12 -12 -12 -12 -12 -12 -12 -11 -11 -11 -11 -12 -12 -11 -11 -11 -11 -11 -11 -11 -11 -11 -11 -10 -10 -10 -10 -10 -10 -10
-16 -16 -16 -16 -16 -16 -16 -16 -15 -15 -15 -14 -14 -13 -13 -13 -12 -12 -12 -12 -12 -12 -12 -11 -11 -12 -12 -11 -11 -11 -11 -11 -11 -11 -11 -11 -10 -10 -10 -10 -10 -10 -10 -10 -10
-16 -16 -16 -16 -16 -16 -16 -16 -16 -16 -15 -15 -15 -14 -14 -13 -13 -13 -12 -12 -12 -12 -12 -12 -12 -12 -12 -12 -12 -12 -11 -12 -11 -11 -11 -11 -10 -10 -11 -10 -10 -11 -11 -11 -11
-17 -16 -16 -16 -16 -16 -16 -16 -16 -16 -15 -15 -16 -15 -14 -14 -13 -13 -13 -12 -12 -12 -13 -12 -12 -12 -12 -12 -12 -12 -12 -12 -12 -11 -11 -11 -10 -10 -11 -10 -11 -11 -11 -11 -11
-17 -16 -16 -16 -16 -16 -16 -16 -16 -16 -16 -16 -15 -15 -15 -15 -13 -14 -14 -14 -13 -13 -13 -12 -13 -13 -13 -13 -13 -12 -13 -12 -12 -12 -11 -11 -11 -9 -10 -10 -11 -11 -11 -11 -11
-17 -17 -17 -17 -17 -16 -16 -16 -16 -16 -16 -15 -14 -14 -15 -15 -15 -15 -15 -15 -14 -14 -13 -13 -13 -13 -13 -13 -13 -12 -13 -13 -13 -12 -11 -11 -11 -10 -10 -10 -10 -11 -11 -11 -11
-17 -17 -17 -17 -17 -17 -17 -17 -17 -17 -15 -15 -14 -14 -14 -15 -15 -15 -15 -15 -15 -15 -13 -14 -13 -13 -13 -14 -14 -13 -13 -14 -13 -13 -11 -11 -11 -9 -10 -10 -10 -10 -11 -11 -11
-17 -17 -17 -17 -17 -17 -18 -18 -18 -15 -15 -15 -15 -15 -15 -15 -15 -15 -15 -15 -14 -14 -14 -14 -14 -13 -13 -14 -14 -15 -15 -14 -14 -13 -12 -12 -11 -9 -10 -10 -11 -11 -11 -11 -11
-19 -18 -19 -18 -19 -19 -18 -19 -16 -16 -16 -16 -16 -16 -16 -16 -15 -15 -15 -15 -15 -15 -15 -15 -14 -14 -14 -15 -15 -14 -14 -14 -15 -14 -14 -12 -10 -10 -10 -10 -10 -11 -11 -11 -11
-21 -20 -21 -19 -20 -19 -20 -18 -17 -17 -16 -17 -17 -16 -16 -16 -16 -16 -16 -15 -15 -16 -16 -16 -15 -15 -15 -14 -15 -15 -14 -15 -15 -15 -14 -12 -11 -10 -10 -11 -11 -10 -10 -11 -11
-23 -22 -22 -21 -21 -21 -19 -18 -17 -17 -18 -18 -18 -17 -16 -16 -17 -16 -16 -15 -16 -16 -17 -16 -16 -15 -15 -15 -15 -15 -15 -14 -15 -15 -15 -14 -12 -11 -11 -11 -11 -11 -11 -11 -11
-23 -23 -23 -23 -23 -22 -20 -20 -20 -20 -20 -20 -19 -18 -18 -18 -18 -18 -16 -16 -16 -17 -17 -18 -17 -16 -15 -15 -16 -16 -15 -15 -15 -14 -15 -15 -13 -11 -11 -11 -11 -12 -12 -11 -12
-23 -23 -23 -23 -23 -23 -22 -22 -22 -21 -21 -21 -21 -20 -20 -19 -19 -18 -18 -18 -18 -18 -18 -18 -18 -17 -16 -16 -15 -15 -15 -15 -16 -16 -16 -15 -13 -12 -12 -12 -12 -12 -12 -12 -13
-23 -23 -23 -23 -23 -23 -23 -23 -22 -22 -22 -22 -22 -21 -21 -20 -20 -20 -19 -19 -19 -19 -19 -19 -18 -18 -17 -16 -16 -16 -16 -17 -17 -17 -15 -16 -13 -12 -12 -12 -13 -13 -13 -13 -14
-24 -24 -23 -23 -23 -23 -23 -23 -23 -23 -23 -23 -22 -22 -21 -22 -22 -21 -20 -20 -20 -20 -20 -20 -19 -19 -17 -17 -17 -16 -17 -17 -18 -16 -17 -14 -16 -12 -13 -13 -13 -13 -14 -14 -15
-24 -24 -24 -24 -23 -23 -23 -23 -23 -23 -23 -23 -23 -23 -23 -22 -22 -21 -21 -21 -21 -20 -19 -20 -20 -20 -19 -18 -18 -18 -17 -18 -17 -16 -17 -15 -15 -13 -14 -15 -15 -15 -15 -15 -15
-25 -24 -24 -24 -24 -24 -23 -23 -23 -24 -23 -23 -23 -23 -23 -23 -22 -22 -22 -22 -21 -20 -20 -20 -20 -21 -20 -19 -20 -19 -17 -17 -17 -17 -17 -17 -16 -16 -15 -15 -16 -16 -16 -16 -16
Height
5787 5792 5798 5803 5808 5813 5818 5822 5827 5830 5834 5838 5841 5843 5846 5849 5851 5854 5857 5860 5862 5864 5866 5868 5871 5873 5875 5878 5879 5880 5881 5881 5882 5881 5882 5882 5882 5883 5883 5883 5882 5883 5883 5883 5883
5780 5786 5792 5798 5803 5808 5813 5817 5822 5826 5830 5834 5837 5840 5843 5847 5849 5851 5853 5857 5858 5861 5863 5865 5867 5869 5872 5875 5877 5879 5879 5880 5881 5880 5880 5882 5882 5882 5883 5882 5882 5882 5882 5881 5881
5774 5780 5785 5790 5796 5802 5808 5814 5818 5821 5824 5829 5832 5836 5839 5842 5845 5847 5850 5853 5855 5857 5859 5861 5864 5866 5868 5871 5874 5876 5877 5878 5879 5878 5878 5880 5881 5881 5881 5881 5881 5881 5880 5880 5880
5769 5773 5779 5784 5790 5796 5801 5807 5811 5815 5821 5825 5828 5832 5835 5838 5841 5843 5846 5849 5851 5853 5856 5858 5860 5863 5865 5868 5871 5872 5874 5876 5877 5877 5876 5877 5879 5879 5879 5880 5880 5879 5879 5878 5878
5763 5769 5773 5778 5784 5790 5795 5800 5805 5809 5814 5819 5823 5826 5829 5833 5835 5839 5842 5844 5847 5850 5852 5855 5856 5859 5861 5864 5867 5869 5871 5873 5874 5875 5874 5875 5876 5877 5877 5878 5878 5877 5877 5876 5876
5754 5760 5766 5772 5777 5782 5788 5794 5799 5803 5808 5812 5815 5819 5823 5828 5829 5833 5837 5840 5843 5846 5848 5851 5853 5855 5857 5860 5862 5864 5866 5869 5871 5872 5872 5872 5873 5873 5875 5876 5875 5875 5874 5874 5874
5747 5753 5758 5764 5769 5775 5780 5786 5791 5796 5801 5805 5809 5813 5817 5822 5824 5828 5831 5835 5838 5841 5843 5846 5848 5851 5853 5855 5858 5860 5862 5864 5866 5868 5869 5869 5870 5869 5871 5872 5872 5872 5872 5871 5871
5743 5746 5751 5757 5762 5767 5772 5777 5783 5788 5793 5798 5803 5806 5810 5814 5818 5822 5826 5829 5832 5835 5837 5840 5844 5846 5848 5851 5853 5855 5857 5859 5862 5863 5864 5865 5867 5865 5867 5868 5869 5869 5869 5869 5868
5737 5741 5745 5749 5754 5759 5764 5769 5775 5780 5785 5790 5794 5799 5804 5808 5812 5815 5819 5822 5826 5829 5832 5835 5837 5840 5844 5846 5848 5850 5852 5854 5856 5858 5859 5860 5862 5860 5863 5865 5866 5866 5866 5866 5865
5730 5735 5738 5742 5747 5752 5756 5761 5765 5771 5777 5781 5786 5792 5797 5801 5804 5809 5812 5816 5820 5823 5826 5829 5832 5834 5838 5841 5844 5844 5845 5848 5851 5853 5852 5854 5858 5856 5858 5861 5862 5862 5862 5862 5861
5720 5726 5731 5736 5740 5745 5749 5753 5759 5764 5768 5773 5779 5783 5787 5792 5796 5800 5804 5808 5811 5816 5819 5822 5826 5830 5832 5832 5833 5837 5840 5844 5846 5845 5845 5848 5851 5852 5853 5857 5857 5857 5857 5857 5857
5712 5717 5722 5727 5731 5736 5741 5746 5751 5756 5760 5764 5769 5774 5778 5783 5788 5792 5796 5801 5805 5808 5811 5815 5819 5822 5825 5826 5828 5830 5834 5838 5840 5838 5837 5840 5845 5846 5847 5851 5851 5851 5852 5851 5851
5704 5709 5713 5718 5723 5728 5733 5739 5743 5747 5751 5756 5761 5766 5771 5776 5779 5783 5787 5791 5795 5800 5803 5806 5811 5814 5817 5819 5821 5824 5827 5830 5832 5831 5830 5834 5834 5840 5843 5844 5844 5846 5845 5844 5844
5695 5699 5704 5708 5716 5719 5725 5731 5735 5739 5741 5751 5753 5757 5763 5766 5771 5776 5778 5782 5785 5790 5792 5797 5801 5806 5810 5814 5814 5817 5819 5820 5822 5823 5823 5827 5818 5832 5838 5837 5838 5839 5837 5837 5837
5685 5692 5693 5700 5707 5710 5717 5723 5727 5732 5731 5739 5747 5750 5754 5757 5764 5767 5770 5773 5778 5781 5784 5791 5792 5795 5799 5804 5803 5807 5809 5810 5813 5814 5815 5817 5813 5817 5829 5830 5833 5832 5831 5829 5828
5670 5678 5685 5690 5696 5702 5706 5714 5719 5722 5720 5728 5737 5742 5745 5748 5752 5755 5760 5763 5767 5769 5774 5778 5781 5785 5789 5792 5793 5797 5798 5800 5801 5803 5805 5809 5809 5804 5817 5824 5825 5824 5824 5821 5820
5656 5663 5670 5676 5684 5689 5694 5700 5704 5704 5719 5722 5725 5731 5734 5739 5742 5745 5749 5754 5756 5758 5764 5768 5770 5774 5778 5781 5781 5784 5787 5787 5789 5790 5796 5796 5797 5795 5804 5812 5815 5815 5814 5812 5811
5641 5649 5656 5662 5670 5674 5679 5684 5685 5703 5707 5710 5714 5717 5723 5727 5732 5735 5738 5742 5747 5751 5754 5754 5758 5761 5767 5770 5771 5773 5776 5776 5775 5776 5782 5782 5786 5789 5798 5797 5803 5803 5803 5801 5799
5630 5634 5637 5644 5651 5657 5662 5663 5678 5689 5693 5698 5699 5703 5708 5715 5720 5723 5727 5732 5736 5741 5742 5741 5744 5749 5755 5756 5758 5760 5762 5770 5762 5765 5763 5770 5779 5782 5787 5791 5789 5790 5787 5786 5786
5618 5622 5625 5630 5635 5641 5643 5652 5665 5672 5678 5681 5685 5689 5696 5701 5706 5712 5716 5724 5725 5729 5728 5729 5730 5735 5738 5741 5743 5747 5751 5750 5748 5748 5746 5757 5762 5770 5778 5779 5780 5779 5773 5772 5772
5607 5610 5615 5617 5621 5622 5628 5640 5650 5655 5659 5664 5671 5676 5683 5687 5691 5695 5703 5712 5711 5714 5713 5716 5717 5722 5723 5728 5733 5732 5735 5738 5737 5737 5736 5739 5743 5762 5767 5766 5765 5762 5763 5760 5760
5596 5597 5603 5605 5609 5612 5619 5630 5634 5639 5643 5649 5653 5662 5668 5671 5673 5678 5690 5696 5698 5699 5701 5703 5701 5706 5710 5712 5715 5716 5723 5723 5716 5724 5720 5724 5730 5752 5753 5753 5749 5748 5749 5750 5744
5582 5585 5590 5592 5596 5604 5611 5616 5618 5623 5628 5632 5637 5644 5650 5654 5656 5663 5673 5681 5680 5684 5686 5689 5685 5690 5695 5700 5703 5704 5708 5709 5710 5707 5703 5708 5720 5742 5737 5736 5737 5738 5736 5734 5730
5569 5572 5576 5580 5588 5593 5597 5602 5606 5610 5614 5619 5623 5627 5634 5638 5642 5646 5655 5660 5664 5667 5669 5670 5668 5673 5682 5692 5688 5691 5693 5693 5690 5687 5696 5692 5706 5724 5721 5721 5723 5725 5722 5717 5715
5549 5558 5562 5567 5577 5581 5583 5591 5595 5598 5602 5605 5609 5615 5619 5620 5627 5632 5640 5642 5646 5651 5655 5652 5652 5659 5668 5674 5671 5673 5676 5677 5673 5680 5674 5691 5684 5705 5710 5707 5707 5703 5704 5700 5698
5530 5542 5548 5554 5560 5564 5567 5580 5583 5585 5587 5594 5597 5602 5601 5605 5614 5621 5620 5625 5631 5635 5634 5634 5635 5641 5645 5656 5653 5651 5658 5661 5664 5667 5662 5670 5672 5693 5693 5687 5686 5687 5683 5681 5681
5512 5521 5528 5535 5540 5544 5555 5568 5567 5568 5572 5578 5583 5585 5588 5597 5595 5602 5604 5610 5615 5620 5620 5622 5621 5626 5628 5640 5636 5630 5647 5650 5650 5651 5655 5650 5666 5675 5672 5673 5671 5670 5667 5667 5668
Wind_Speed
43 42 41 40 39 37 35 33 31 28 27 25 24 23 23 23 23 23 23 22 22 21 22 21 21 20 21 19 17 14 12 10 7 5 4 3 1 1 0 1 2 2 3 2 2
46 46 45 43 41 39 36 34 33 30 28 27 26 25 26 25 24 23 22 23 21 22 22 21 22 22 22 22 20 17 15 12 10 7 3 1 1 2 3 3 2 2 3 4 4
47 47 47 46 45 42 40 38 35 33 30 29 28 28 27 27 25 24 23 23 23 23 22 22 23 23 24 24 22 21 18 16 13 9 7 4 4 5 7 5 5 4 4 5 6
49 48 48 47 46 45 43 40 37 33 33 33 30 30 29 27 26 25 25 25 24 24 24 24 24 24 26 25 24 23 21 19 16 13 10 8 7 8 10 8 8 7 7 6 7
42 49 50 50 48 47 45 42 39 38 35 35 33 31 31 29 28 26 26 25 26 26 26 26 25 26 27 25 26 24 22 21 19 16 14 11 10 11 12 10 10 10 9 7 6
34 40 47 49 49 47 46 44 43 41 39 37 35 33 33 32 30 29 28 27 27 27 28 28 27 27 27 27 27 24 24 24 22 20 17 14 13 14 14 11 12 11 9 7 8
37 36 40 44 46 48 47 46 45 43 41 40 38 36 35 36 34 32 31 30 28 28 27 29 29 29 28 29 27 25 25 25 24 22 18 17 14 19 14 13 13 11 9 9 8
37 33 35 38 42 45 46 46 46 46 45 43 42 39 36 37 38 36 34 32 30 30 28 28 30 30 30 30 28 28 28 26 26 24 21 20 16 20 18 12 12 11 11 11 11
34 32 41 35 35 38 43 45 45 46 46 46 44 42 40 39 39 39 37 34 34 32 31 31 31 32 32 31 29 29 29 28 28 26 24 23 20 23 20 16 13 12 13 13 14
37 36 30 38 37 36 35 40 42 45 46 46 46 45 43 41 40 41 40 37 36 35 34 34 34 34 33 31 29 32 33 31 28 28 28 25 21 24 22 18 16 16 16 15 16
44 40 39 36 35 40 35 36 38 41 45 46 46 47 44 42 42 41 41 41 40 38 37 37 37 36 33 36 37 36 34 31 30 32 31 29 24 25 26 19 20 20 20 19 21
40 48 46 43 40 35 35 37 36 36 38 41 45 47 47 45 44 44 43 42 42 40 39 40 40 38 38 39 39 37 35 33 33 35 36 34 28 28 28 23 24 24 23 25 25
36 46 44 51 44 40 39 36 40 40 40 39 41 43 45 48 47 46 45 44 44 44 43 42 42 42 42 43 42 39 38 36 38 40 41 37 37 32 28 27 28 26 27 29 30
46 34 44 52 46 42 43 30 28 40 48 42 40 41 41 43 45 46 48 48 47 45 46 46 45 44 43 43 44 43 40 41 42 43 44 41 46 35 30 32 31 29 31 30 31
44 50 34 42 37 41 32 37 33 36 42 37 38 41 42 43 44 42 43 45 47 47 47 47 46 45 46 45 46 48 46 46 46 46 47 47 50 43 34 33 31 32 33 34 35
62 58 56 52 50 48 45 45 42 38 47 43 38 38 39 42 46 46 44 46 47 48 48 50 50 49 48 47 49 51 50 49 50 49 52 50 50 52 41 33 34 33 34 36 37
64 64 66 65 63 63 56 53 53 54 47 46 46 42 41 41 43 48 49 48 48 49 50 49 50 50 50 50 50 52 52 51 52 54 55 55 55 55 47 40 38 37 36 38 40
64 65 65 68 69 67 61 56 62 59 59 57 55 52 48 43 43 43 44 50 51 49 50 53 53 52 51 51 50 48 49 52 55 57 58 59 58 54 50 49 43 43 42 43 43
58 62 61 62 63 65 67 67 72 64 64 63 61 56 53 51 48 46 42 45 45 46 51 56 54 54 52 52 52 55 56 54 56 58 61 63 59 57 53 50 51 48 49 48 48
50 52 52 59 57 60 64 71 73 72 72 68 65 65 64 61 57 54 51 46 41 41 43 48 54 59 57 57 58 57 58 59 60 62 65 66 64 58 54 53 52 52 55 55 52
42 44 45 49 51 55 62 69 69 70 69 70 69 70 70 67 64 63 62 58 55 51 50 50 51 55 57 62 60 59 60 61 63 64 65 66 67 59 56 57 58 59 59 59 57
44 45 44 44 47 50 55 51 55 53 58 61 63 66 68 70 71 68 66 62 60 59 54 51 56 56 56 56 59 65 65 63 67 67 67 64 67 59 58 58 60 61 60 60 62
50 50 49 49 49 47 43 44 45 49 51 56 59 59 61 65 69 70 66 63 61 58 57 56 57 57 58 58 58 60 61 66 69 68 70 70 67 56 61 61 61 61 62 63 65
59 58 56 55 50 48 48 47 47 46 46 48 54 59 60 63 63 64 65 64 63 62 62 61 63 60 63 60 59 57 56 56 55 60 68 74 74 65 64 65 64 63 64 64 63
66 63 62 62 57 55 54 51 50 50 50 49 50 51 57 63 60 60 58 64 64 59 60 69 70 68 69 65 66 64 60 58 57 61 62 59 62 56 59 65 67 70 68 65 60
72 69 67 65 63 63 62 57 56 54 55 53 53 51 54 56 58 62 63 55 58 52 46 48 70 69 68 66 67 70 68 63 62 62 63 64 61 53 48 49 55 58 60 59 58
69 71 71 70 69 70 66 60 61 61 61 58 57 58 58 56 57 58 65 68 62 60 49 46 50 58 69 62 60 63 66 67 69 67 60 61 57 46 50 50 49 51 52 56 56
Wind_Direction
205 205 205 206 205 206 206 205 207 207 209 210 212 214 215 216 215 214 218 221 221 223 224 223 222 219 218 215 212 209 202 199 189 157 132 116 124 109 75 229 306 332 321 306 271
207 207 207 207 209 209 212 212 212 214 215 216 218 218 219 219 219 218 218 223 224 226 228 226 225 220 218 218 215 213 211 214 212 188 183 188 272 251 255 274 298 314 320 299 284
210 209 209 210 211 212 214 216 217 218 219 222 221 222 222 221 222 222 224 227 227 227 230 229 229 224 221 219 217 216 218 220 227 214 208 242 271 273 269 272 281 299 302 304 304
214 214 214 214 214 216 216 219 223 223 223 224 225 223 225 223 225 228 228 229 229 231 231 231 229 227 226 221 220 218 223 224 230 232 228 236 262 271 263 265 280 288 285 289 297
217 218 217 217 218 220 221 223 225 225 227 228 227 226 227 226 228 230 232 231 231 232 232 233 230 229 228 224 223 221 226 230 233 236 236 240 252 262 258 266 278 278 280 289 294
212 217 219 221 222 223 225 227 228 228 229 230 232 232 232 232 229 230 232 230 233 233 234 234 231 229 228 227 226 224 227 233 237 239 241 241 246 254 254 261 266 268 271 276 282
209 212 217 221 223 225 226 228 230 232 234 234 235 236 236 235 232 231 231 232 231 234 234 233 233 230 228 229 229 228 231 235 241 242 242 245 246 251 253 260 260 257 266 271 282
221 216 220 219 221 224 227 229 232 233 234 236 237 239 240 237 235 233 232 233 233 236 234 233 231 231 232 231 231 233 234 238 242 244 243 243 241 248 252 257 256 257 265 266 270
229 227 228 223 223 223 225 227 229 233 235 236 236 237 239 239 237 234 233 233 235 236 236 234 232 231 233 233 234 237 239 240 242 246 245 246 234 247 249 253 260 261 265 264 270
233 230 225 225 223 223 225 228 226 229 232 235 235 237 238 239 238 236 235 235 236 237 237 237 235 233 233 235 236 238 239 242 244 246 247 244 234 244 249 249 256 263 270 275 278
231 228 230 233 230 228 224 227 228 231 230 233 235 236 236 237 239 239 237 236 236 237 239 239 239 236 232 232 234 238 242 244 246 245 246 245 235 245 250 252 259 264 269 274 274
233 228 229 228 229 228 234 235 233 233 234 236 237 236 235 234 237 238 238 238 239 239 239 239 240 236 236 237 240 241 244 246 247 248 248 247 243 244 254 255 259 266 273 274 276
232 235 233 230 227 233 232 239 238 233 231 233 236 237 239 238 236 236 238 238 239 240 241 241 241 239 238 240 242 244 246 247 247 248 252 251 252 248 252 261 263 268 271 275 276
240 221 223 226 224 227 229 230 246 244 236 232 240 237 237 241 241 243 241 240 239 240 242 242 245 244 243 243 247 246 247 247 247 249 252 254 261 248 247 255 263 271 273 275 278
221 231 206 225 230 232 231 234 251 250 234 241 238 244 241 243 242 240 244 245 245 244 244 244 244 247 244 243 245 247 248 249 250 251 252 254 260 260 252 255 261 265 269 275 277
234 232 232 231 232 237 231 227 230 233 238 244 247 241 240 245 246 246 243 243 245 247 247 247 247 246 247 246 247 248 250 251 251 253 252 254 257 261 260 257 259 263 270 273 276
237 236 236 236 237 236 237 229 232 233 230 237 243 242 242 243 246 247 248 247 246 248 247 248 248 249 248 247 247 247 249 252 253 254 255 255 256 263 267 265 264 270 272 274 277
240 239 236 237 235 238 240 237 235 232 232 236 241 242 241 242 241 244 247 246 247 248 251 250 247 247 249 249 250 248 248 250 254 254 254 253 257 261 264 270 270 270 271 275 274
236 240 245 242 240 240 240 239 239 237 239 241 244 244 243 243 243 244 247 245 244 247 249 250 250 251 251 251 249 250 249 251 252 254 257 256 256 260 264 268 273 276 277 276 275
236 240 243 243 243 239 239 241 240 241 241 244 245 247 248 249 248 246 246 243 244 249 251 250 251 250 250 250 250 251 250 248 248 250 253 256 258 260 264 267 267 271 274 273 277
238 238 239 241 242 243 242 244 242 242 243 242 242 245 247 248 249 249 247 247 249 248 249 251 252 252 251 252 253 252 251 254 255 254 255 257 256 259 263 265 268 269 270 277 280
240 242 239 241 243 244 246 248 246 242 243 245 245 245 246 247 250 249 250 248 247 250 249 248 251 251 252 250 251 252 253 252 251 255 255 256 257 261 263 265 267 270 273 276 281
240 242 242 242 244 245 245 246 245 243 240 239 241 242 242 242 245 246 247 247 247 246 245 245 245 247 249 250 253 257 258 258 257 256 256 259 262 261 263 264 266 269 273 276 276
240 239 241 243 244 245 246 244 244 245 243 241 241 241 239 242 242 245 243 242 241 241 240 240 244 247 249 254 253 252 255 258 257 256 259 259 264 258 261 262 264 266 270 273 275
243 242 241 242 244 246 246 246 246 247 247 245 244 245 243 240 239 242 246 244 243 247 250 249 249 249 248 246 251 252 250 249 254 259 262 266 262 266 264 266 268 265 266 266 266
242 244 245 245 242 244 245 244 246 247 249 248 248 247 245 244 244 238 233 237 241 233 238 248 248 250 248 248 250 251 251 253 255 256 256 263 262 270 265 261 261 262 261 262 263
243 243 244 244 244 244 244 245 247 248 247 248 248 247 247 248 245 243 240 237 234 227 229 233 233 249 251 249 250 253 252 257 258 258 260 258 266 260 257 256 258 259 259 261 263